Weather History for Naples, FL

Change the Weather History Date:

Tuesday, January 7, 2014

  Actual Average Record
Temperature  
Mean Temperature 53 °F 64 °F  
Max Temperature 59 °F 75 °F 88 °F (1947)
Min Temperature 46 °F 54 °F 35 °F (1980)
Degree Days  
Heating Degree Days 12 4  
Month to date heating degree days 23 22  
Since 1 July heating degree days 31 100  
Cooling Degree Days 0 3  
Month to date cooling degree days 28 21  
Year to date cooling degree days 28 21  
Growing Degree Days 2 (Base 50)    
Moisture  
Dew Point 26 °F    
Average Humidity 45    
Maximum Humidity 66    
Minimum Humidity 24    
Precipitation  
Precipitation 0.00 in 0.06 in 1.76 in (1958)
Month to date precipitation 0.43 0.39  
Year to date precipitation 0.43 0.39  
Snow  
Snow 0.00 in - - ()
Month to date snowfall 0.0  
Since 1 July snowfall 0.0  
Snow Depth 0.00 in    
Sea Level Pressure  
Sea Level Pressure 30.30 in    
Wind  
Wind Speed 11 mph (NNE)    
Max Wind Speed 20 mph    
Max Gust Speed 26 mph    
Visibility 10 miles    
Events      
T = Trace of Precipitation, MM = Missing Value Source: NWS Daily Summary

Daily Weather History Graph

Daily Weather History Graph

Search for Another Location

Airport:

Trip Planner

Search our weather history database for the weather conditions in past years. The results will help you decide how hot, cold, wet, or windy it might be!

Date:

Astronomy

Jan. 07, 2014 Rise Set
Actual Time 7:15 AM EST 5:51 PM EST
Civil Twilight 6:50 AM EST 6:16 PM EST
Nautical Twilight 6:22 AM EST 6:44 PM EST
Astronomical Twilight 5:54 AM EST 7:12 PM EST
Moon 11:46 AM EST (1/7) No Moon Set
Length of Visible Light 11h 25m
Length of Day
10h 35m
Waxing Crescent, 45% of the Moon is Illuminated
Jan 7
Waxing Crescent
Jan 7
First Quarter
Jan 15
Full
Jan 24
Last Quarter
Jan 30
New

Hourly Weather History & Observations

Time (EST) Temp. Windchill Dew Point Humidity Pressure Visibility Wind Dir Wind Speed Gust Speed Precip Events Conditions
12:53 AM 51.1 °F - 30.0 °F 44% 30.24 in 10.0 mi NNE 13.8 mph 21.9 mph N/A   Overcast
1:53 AM 50.0 °F - 28.0 °F 43% 30.25 in 10.0 mi North 11.5 mph 21.9 mph N/A   Overcast
2:53 AM 48.9 °F - 27.0 °F 43% 30.26 in 10.0 mi North 10.4 mph 21.9 mph N/A   Overcast
3:53 AM 48.9 °F - 28.0 °F 44% 30.26 in 10.0 mi North 11.5 mph 19.6 mph N/A   Overcast
4:53 AM 48.0 °F - 26.1 °F 42% 30.26 in 10.0 mi NNE 10.4 mph 19.6 mph N/A   Overcast
5:53 AM 46.9 °F - 19.9 °F 34% 30.29 in 10.0 mi North 15.0 mph 23.0 mph N/A   Overcast
6:53 AM 46.0 °F 40.6 °F 21.0 °F 37% 30.30 in 10.0 mi NNE 11.5 mph 19.6 mph N/A   Overcast
7:53 AM 46.0 °F 41.0 °F 24.1 °F 42% 30.33 in 10.0 mi NNE 10.4 mph - N/A   Overcast
8:53 AM 46.0 °F 40.6 °F 25.0 °F 44% 30.35 in 10.0 mi North 11.5 mph 20.7 mph N/A   Overcast
9:53 AM 48.0 °F - 25.0 °F 41% 30.35 in 10.0 mi NNE 11.5 mph 21.9 mph N/A   Overcast
10:53 AM 48.0 °F - 26.1 °F 42% 30.35 in 10.0 mi NNE 11.5 mph - N/A   Clear
11:53 AM 51.1 °F - 25.0 °F 36% 30.33 in 10.0 mi NNE 11.5 mph 18.4 mph N/A   Clear
12:53 PM 54.0 °F - 25.0 °F 33% 30.29 in 10.0 mi NNE 12.7 mph 18.4 mph N/A   Clear
1:53 PM 55.9 °F - 25.0 °F 30% 30.27 in 10.0 mi North 9.2 mph 17.3 mph N/A   Clear
2:53 PM 57.0 °F - 23.0 °F 27% 30.27 in 10.0 mi North 11.5 mph - N/A   Clear
3:53 PM 57.0 °F - 21.0 °F 25% 30.27 in 10.0 mi North 11.5 mph 16.1 mph N/A   Clear
4:53 PM 55.0 °F - 19.0 °F 24% 30.28 in 10.0 mi NNE 11.5 mph 19.6 mph N/A   Overcast
5:53 PM 53.1 °F - 21.0 °F 29% 30.28 in 10.0 mi NNE 11.5 mph 17.3 mph N/A   Overcast
6:08 PM 53.6 °F - 19.4 °F 26% 30.30 in 10.0 mi North 9.2 mph - N/A   Overcast
6:53 PM 52.0 °F - 23.0 °F 32% 30.30 in 10.0 mi NNE 11.5 mph 20.7 mph N/A   Overcast
7:04 PM 51.8 °F - 23.0 °F 33% 30.31 in 10.0 mi NNE 11.5 mph - N/A   Overcast
7:53 PM 51.1 °F - 25.0 °F 36% 30.31 in 10.0 mi NNE 10.4 mph 21.9 mph N/A   Overcast
8:53 PM 50.0 °F - 32.0 °F 50% 30.33 in 10.0 mi NNE 8.1 mph - N/A   Overcast
9:53 PM 50.0 °F - 36.0 °F 59% 30.34 in 10.0 mi NNE 11.5 mph - N/A   Overcast
10:53 PM 48.9 °F - 37.0 °F 64% 30.33 in 10.0 mi NNE 10.4 mph 18.4 mph N/A   Overcast
11:53 PM 48.0 °F - 37.9 °F 68% 30.31 in 10.0 mi NE 12.7 mph 19.6 mph N/A   Overcast